Temperature
26 27 27 27 27 27 27 27 26 26 26 25 25 25 24 23 22 22 21 21 20 19 18 18 17 17 16 16 16 16 16 16 16 15 15 15 15 15 15 14 14 14 14 14
26 27 27 27 27 27 27 26 26 26 25 25 25 25 24 23 22 21 21 20 20 19 19 17 17 16 16 16 16 16 16 16 15 15 15 15 15 15 14 14 14 14 14 14
27 27 27 27 27 26 26 26 26 26 25 25 25 25 24 23 22 21 20 20 20 19 19 17 17 16 16 16 16 15 15 15 15 15 15 15 15 15 14 14 14 14 14 14
27 28 27 27 27 26 26 27 26 26 26 26 26 25 25 24 23 22 21 20 20 19 19 18 17 16 16 16 15 15 15 15 15 15 15 14 14 14 14 14 14 14 14 14
27 27 27 27 27 26 26 26 26 26 26 26 26 25 25 24 23 23 21 20 19 19 18 17 17 16 16 15 15 15 15 15 15 15 14 14 14 14 14 14 13 13 13 13
27 27 27 27 27 27 26 26 26 26 27 25 25 25 24 24 23 23 22 20 19 19 18 17 16 16 15 15 15 15 14 14 14 14 14 14 14 13 13 13 13 13 13 13
27 27 27 27 27 26 26 26 26 26 26 25 25 25 24 24 23 23 22 20 19 18 18 17 16 16 15 15 15 15 14 14 14 14 14 13 13 13 13 13 13 13 13 13
27 26 27 27 27 26 26 26 25 25 25 26 25 25 24 23 22 21 21 20 19 18 18 17 16 16 15 15 15 14 14 14 14 14 14 13 13 13 13 13 13 13 13 13
27 26 27 27 27 27 26 27 27 26 26 25 25 25 24 23 22 21 21 20 19 18 18 17 16 16 15 15 14 14 14 14 14 13 13 13 13 13 13 13 12 12 12 12
27 26 27 27 27 26 27 27 26 26 24 24 25 25 25 23 22 22 21 20 19 18 17 17 16 15 15 15 14 14 14 13 13 13 13 13 13 13 13 13 12 12 12 12
27 26 26 26 26 26 26 26 25 26 25 25 24 24 24 23 22 22 21 20 19 18 17 16 16 15 15 15 14 14 14 13 13 13 13 13 13 12 12 12 12 12 12 12
26 26 26 26 26 26 26 26 25 24 24 25 24 24 23 23 23 22 21 20 19 18 17 16 16 15 15 14 14 14 14 13 13 13 13 13 12 12 12 12 12 12 12 12
25 25 24 25 25 25 25 25 25 25 25 24 24 24 23 23 22 21 21 20 18 17 17 16 15 15 15 14 14 14 13 13 13 13 13 12 12 12 12 12 12 12 12 12
24 24 24 24 25 25 25 25 25 25 24 24 24 24 23 22 22 21 20 19 18 17 16 16 15 15 14 14 14 13 13 13 13 13 12 12 12 12 12 12 12 12 12 11
24 24 24 25 25 25 25 24 24 24 24 24 24 24 23 23 22 21 20 19 18 17 17 16 15 15 14 14 13 13 13 13 13 13 12 12 12 12 12 12 12 12 12 11
23 23 24 24 24 24 24 24 24 24 24 24 24 23 23 22 21 20 20 19 19 18 17 16 15 15 14 14 13 13 13 13 13 12 12 12 12 12 12 12 11 11 11 11
23 23 23 24 24 24 23 24 24 24 24 24 23 23 23 22 21 20 19 19 18 18 17 16 15 14 14 13 13 13 13 13 12 12 12 12 12 12 11 11 11 11 11 11
22 22 23 24 23 22 23 24 24 23 23 23 23 23 22 22 20 20 19 18 18 17 17 16 15 14 14 13 13 13 13 13 12 12 12 12 12 12 11 11 11 11 11 11
21 22 23 23 23 23 23 23 23 23 22 23 22 22 21 21 20 20 18 18 17 17 16 15 15 14 14 13 13 13 13 12 12 12 12 12 12 12 11 11 11 11 11 11
21 21 22 22 22 22 23 23 22 22 22 22 21 21 21 20 21 21 18 17 17 16 15 15 14 14 13 13 13 13 13 12 12 12 12 12 11 11 11 11 11 11 11 11
21 21 22 22 22 23 22 22 21 21 21 20 20 20 20 20 20 18 17 16 16 15 15 15 14 14 13 13 13 13 13 12 12 12 12 12 11 11 11 11 11 11 11 11
22 22 21 22 21 22 21 21 21 20 19 19 19 19 19 18 18 17 16 16 15 15 15 14 14 14 13 13 13 13 13 12 12 12 12 12 12 11 12 11 11 11 11 11
22 21 22 21 21 20 19 19 19 18 18 18 18 18 18 17 17 16 16 15 15 15 14 14 14 14 13 13 13 13 12 12 12 12 12 12 12 12 11 11 11 11 11 11
21 19 20 20 20 19 19 18 18 17 17 17 17 17 17 17 17 16 16 15 15 14 14 14 14 14 13 13 13 13 12 12 12 12 12 12 11 11 11 11 11 11 11 11
20 19 20 20 20 19 18 18 17 17 17 17 16 16 16 16 16 16 15 15 14 14 14 14 14 14 13 13 13 12 12 12 12 12 12 11 11 11 11 11 11 11 11 11
19 19 19 19 19 19 18 17 17 16 16 16 16 16 16 16 15 15 15 14 14 14 14 14 14 13 13 13 12 12 12 12 12 12 12 12 12 12 12 11 11 11 11 11
Wind_Speed
6 8 7 5 7 7 6 6 5 3 1 3 4 3 1 1 2 2 2 2 2 2 1 1 2 2 3 3 3 3 2 3 3 2 3 2 2 2 2 2 2 3 3 3
7 8 5 4 5 6 7 7 5 2 1 3 3 4 2 1 2 2 2 2 2 2 2 1 1 2 2 2 2 2 3 3 3 3 2 2 2 2 2 1 1 3 3 3
8 2 1 4 5 5 6 6 5 5 3 5 5 5 4 2 2 1 1 2 2 2 2 2 2 1 1 1 1 1 2 2 2 2 2 1 1 2 1 1 2 2 3 3
6 4 4 6 5 6 6 4 6 6 7 4 6 5 2 2 2 2 2 2 2 2 2 1 1 1 2 2 1 1 1 1 1 1 1 2 2 2 2 2 2 2 2 3
5 4 5 6 5 5 4 2 5 6 6 6 5 6 1 2 2 2 2 2 2 2 1 1 1 1 2 2 1 1 1 1 1 1 2 2 2 2 2 2 2 3 2 2
7 4 4 4 3 4 3 4 5 6 6 5 3 5 2 1 2 1 2 2 2 1 1 0 0 1 1 1 2 1 1 0 0 0 1 2 2 3 2 3 2 3 2 2
6 6 4 3 4 5 5 6 5 5 5 3 1 4 1 1 1 1 1 1 2 1 1 0 0 0 1 1 1 1 1 0 0 1 1 2 2 3 3 3 3 3 3 3
5 4 5 4 4 4 5 7 6 6 5 4 2 3 1 3 2 1 1 1 1 2 1 1 0 0 0 0 0 1 1 1 1 1 1 2 3 3 2 2 3 3 3 3
4 2 4 3 3 4 5 6 6 7 7 6 3 1 3 2 2 2 2 1 1 1 1 1 1 0 1 1 1 1 1 1 1 2 2 2 2 3 2 2 3 3 2 2
4 4 3 3 4 3 5 4 5 6 5 6 4 4 2 2 2 2 2 2 1 1 1 1 1 1 1 1 0 0 0 1 2 1 2 2 2 2 2 3 2 2 3 2
5 5 4 5 5 5 4 4 5 6 6 7 6 3 3 1 2 2 2 1 2 2 1 1 1 1 1 1 1 1 1 1 2 2 2 2 2 2 2 2 2 2 2 3
4 5 5 4 1 3 5 5 5 6 6 6 7 2 4 1 2 2 1 2 2 2 2 2 1 1 1 1 1 1 1 2 2 1 2 2 3 2 2 2 2 2 3 3
2 4 6 5 5 4 4 4 6 7 7 7 8 2 4 2 2 2 2 2 3 2 2 2 1 0 0 1 1 1 1 2 2 2 2 2 3 2 2 2 2 2 2 2
3 4 7 7 5 3 4 5 6 8 8 7 7 5 0 1 2 2 3 3 3 3 2 1 1 0 0 1 1 1 1 2 2 2 2 2 3 2 2 2 2 2 2 2
3 5 5 6 5 5 6 6 6 8 9 9 6 5 4 2 2 3 3 3 3 2 2 1 1 1 1 0 1 1 2 2 2 2 2 3 2 2 1 2 2 2 2 2
3 4 5 7 6 6 7 7 7 7 7 8 7 5 2 1 2 3 4 4 3 2 2 1 1 1 1 1 1 1 2 1 2 2 3 2 2 1 1 1 1 2 2 2
4 5 6 8 7 8 8 6 7 6 6 7 7 4 2 2 3 4 4 3 3 2 2 1 1 1 1 1 1 1 1 2 2 2 3 3 2 1 1 1 1 2 2 3
5 6 6 7 7 8 2 1 4 5 5 5 5 3 3 2 3 3 3 3 3 2 2 1 1 1 1 1 1 1 1 1 2 2 2 2 2 2 2 2 2 2 3 3
6 6 5 6 8 7 3 2 3 5 5 2 2 2 2 1 3 4 3 2 2 2 1 1 1 1 1 1 1 1 2 2 2 2 2 2 2 2 2 2 2 3 3 3
4 7 7 7 8 7 1 1 2 5 5 1 2 2 1 2 4 1 2 2 2 1 1 1 1 1 1 1 1 2 2 2 3 3 3 3 3 3 3 3 3 3 3 3
5 5 8 9 8 5 2 1 2 5 2 2 2 2 3 3 2 2 2 2 2 2 1 1 1 1 1 1 2 3 3 3 3 3 3 3 3 3 3 3 3 3 4 3
6 5 6 6 8 4 4 1 1 4 4 2 2 2 3 2 1 1 2 2 2 2 2 2 2 2 2 2 3 3 3 3 3 3 3 3 3 4 3 3 3 3 3 3
5 4 3 3 2 3 2 1 3 3 2 2 2 2 2 3 2 2 2 2 2 2 2 2 2 2 2 3 3 4 3 3 3 3 3 3 3 3 3 3 3 3 3 3
3 1 3 3 2 1 0 1 2 2 2 2 2 1 3 3 3 3 3 2 2 2 2 2 3 2 2 3 3 3 2 2 3 3 4 3 3 3 2 3 3 3 3 3
3 3 4 5 3 1 1 2 2 2 2 2 1 1 2 3 3 3 3 3 2 2 2 2 3 3 3 3 3 2 2 3 4 4 4 4 3 3 2 2 2 3 2 2
3 3 5 4 2 3 2 2 2 1 2 1 1 1 2 3 3 3 3 3 2 2 3 3 3 3 3 3 3 2 2 3 4 4 4 4 4 3 3 3 2 1 2 2
Wind_Direction
210 234 242 253 251 273 276 269 271 279 285 255 267 276 266 233 205 181 188 197 204 208 202 202 217 206 212 208 200 197 200 202 214 229 233 234 242 244 244 250 264 265 260 249
224 236 255 260 251 249 255 261 264 261 215 253 274 274 247 207 207 208 217 221 222 220 189 176 193 198 216 226 218 210 210 211 226 231 244 249 270 263 258 273 257 264 262 258
240 260 224 239 239 248 256 263 272 267 247 232 247 245 198 185 196 226 243 248 243 242 228 197 193 196 213 221 217 226 233 229 246 253 245 231 236 244 239 251 250 264 258 257
244 245 248 249 246 255 264 263 260 248 248 256 249 274 187 184 202 230 244 249 257 255 238 202 187 209 227 221 196 204 211 221 220 229 243 245 260 267 279 279 276 261 244 256
236 233 246 256 260 252 275 269 251 245 251 267 249 268 213 161 259 253 224 233 244 250 252 246 205 213 220 214 184 167 167 191 196 217 230 247 258 274 281 278 274 268 255 262
250 237 252 265 254 224 222 222 227 227 239 257 265 269 276 193 280 268 181 200 217 229 233 273 124 187 209 208 193 170 164 158 92 281 266 268 282 290 290 279 276 274 272 268
223 211 201 224 216 197 231 261 258 244 243 264 152 266 317 81 333 281 171 177 182 182 182 144 108 227 227 211 202 200 192 232 305 308 286 280 273 268 267 276 276 284 289 288
230 212 190 206 240 245 244 270 288 294 292 297 211 268 62 86 82 119 144 165 168 171 162 162 239 286 335 222 280 277 285 309 328 308 290 287 283 272 271 274 284 283 290 304
257 240 159 193 235 258 248 258 292 284 283 278 260 220 154 109 140 157 168 181 168 163 137 129 111 36 39 46 4 327 344 334 328 317 307 299 299 290 289 278 270 279 293 302
265 259 197 185 213 219 280 282 268 273 285 283 272 270 292 176 191 165 173 180 162 142 108 90 75 59 65 80 73 3 344 334 337 318 294 293 300 293 277 273 281 296 307 306
258 253 222 210 240 261 236 242 259 270 284 289 292 314 35 127 184 179 169 154 143 143 130 99 81 66 56 53 59 26 329 319 319 315 305 307 295 289 286 285 282 285 290 285
238 259 258 243 239 276 255 261 251 267 274 274 287 312 81 113 172 175 163 133 120 124 119 108 94 75 55 43 29 1 333 325 309 307 297 291 304 306 298 301 312 311 295 283
211 237 249 225 201 204 231 242 255 262 271 273 275 280 108 118 152 164 164 142 130 128 124 116 108 101 8 15 13 1 342 334 320 318 306 307 312 314 309 312 316 316 305 306
248 249 259 272 291 277 251 243 247 256 264 270 272 290 248 192 193 181 169 156 151 149 147 136 140 212 311 4 0 338 328 325 319 310 312 311 306 308 310 321 329 333 331 332
237 244 250 262 271 272 271 270 261 255 266 274 284 288 301 265 223 192 171 165 171 166 174 206 260 260 285 329 325 324 321 328 324 311 317 319 312 313 316 331 336 328 316 315
231 247 250 250 247 250 264 265 258 257 262 264 271 279 300 257 201 181 176 185 195 199 209 230 243 233 248 290 307 323 330 335 321 308 314 322 318 321 329 335 338 332 318 318
219 227 248 257 249 254 258 256 253 252 259 266 269 283 254 234 215 203 195 203 216 219 217 223 243 252 250 258 284 309 315 316 314 315 321 330 324 331 332 326 329 322 315 311
226 239 247 260 253 252 264 276 262 260 259 263 269 274 253 254 230 202 199 208 222 226 225 225 245 243 237 234 259 296 296 295 304 312 315 318 323 324 314 305 315 314 310 313
225 233 247 252 252 253 235 219 244 259 261 282 271 271 276 271 209 188 183 206 219 213 209 210 216 215 215 220 218 251 274 281 289 302 303 308 307 306 298 297 301 304 308 312
203 226 242 246 258 261 263 114 268 260 242 118 280 260 248 224 239 179 143 190 204 190 177 185 192 175 184 205 226 245 267 280 290 300 297 291 289 286 285 284 280 286 288 292
207 217 234 245 253 254 54 99 218 250 331 20 277 248 222 226 311 52 135 175 184 187 183 187 200 198 201 212 237 254 265 280 291 289 286 282 277 274 272 273 273 276 279 290
237 237 233 245 250 248 69 133 274 347 3 318 284 237 215 213 154 131 158 172 177 185 199 206 223 232 222 225 244 262 274 280 283 283 282 277 270 274 274 268 272 274 282 276
239 273 273 264 306 51 107 14 10 357 332 314 293 252 219 217 205 189 177 178 190 199 212 230 244 247 239 238 257 266 268 270 270 272 275 275 270 272 273 266 262 263 269 288
213 281 254 252 252 335 284 7 7 359 343 327 300 245 215 217 212 200 191 193 208 221 231 238 243 250 258 258 263 262 263 268 271 274 277 274 266 266 264 267 270 279 288 293
259 222 238 245 255 250 236 317 354 15 2 355 334 240 220 222 219 217 212 210 224 244 246 244 248 259 262 262 264 258 253 265 274 275 272 270 267 267 259 253 278 284 305 329
230 239 247 259 258 262 267 287 307 328 337 322 307 266 242 228 226 233 236 231 239 245 243 248 255 259 260 260 261 260 258 261 267 266 266 265 263 255 250 248 233 196 247 136
Height
1502 1500 1495 1493 1492 1492 1492 1495 1496 1495 1495 1498 1498 1498 1499 1503 1504 1505 1506 1508 1509 1509 1510 1509 1509 1510 1511 1510 1510 1510 1510 1510 1510 1511 1511 1511 1511 1511 1511 1510 1509 1509 1508 1508
1498 1494 1491 1491 1492 1493 1493 1495 1494 1494 1496 1498 1497 1497 1498 1501 1503 1505 1506 1507 1507 1508 1508 1508 1509 1509 1509 1509 1509 1508 1509 1509 1509 1509 1509 1508 1508 1508 1509 1508 1507 1507 1506 1506
1493 1490 1490 1492 1491 1494 1492 1493 1493 1495 1495 1495 1497 1496 1496 1499 1502 1505 1505 1506 1506 1507 1508 1508 1508 1508 1508 1508 1507 1507 1507 1507 1507 1507 1507 1506 1506 1506 1506 1506 1505 1505 1504 1504
1488 1488 1490 1489 1489 1490 1491 1488 1491 1492 1494 1492 1493 1499 1494 1495 1499 1502 1504 1505 1505 1506 1506 1507 1507 1507 1507 1507 1506 1506 1506 1506 1505 1505 1505 1505 1504 1504 1504 1504 1504 1503 1503 1502
1487 1487 1488 1489 1488 1489 1488 1487 1488 1488 1489 1491 1490 1495 1493 1494 1497 1498 1501 1503 1505 1505 1505 1506 1506 1506 1506 1506 1506 1505 1505 1504 1504 1503 1503 1503 1503 1503 1502 1502 1502 1501 1501 1500
1484 1486 1487 1486 1486 1488 1487 1487 1486 1485 1484 1497 1491 1495 1495 1492 1495 1495 1499 1502 1503 1504 1505 1505 1505 1505 1505 1505 1504 1504 1504 1503 1503 1502 1501 1501 1501 1500 1500 1500 1500 1500 1499 1499
1485 1483 1485 1486 1486 1487 1486 1488 1493 1494 1494 1494 1488 1494 1494 1491 1493 1496 1498 1501 1502 1503 1504 1504 1504 1504 1504 1503 1503 1503 1502 1502 1501 1501 1500 1500 1499 1498 1498 1498 1498 1498 1497 1497
1486 1487 1483 1484 1484 1485 1484 1486 1496 1502 1497 1489 1488 1492 1490 1492 1495 1497 1499 1500 1502 1503 1503 1503 1504 1503 1503 1502 1502 1501 1501 1501 1500 1499 1499 1498 1497 1497 1497 1496 1496 1495 1495 1494
1484 1486 1481 1483 1483 1482 1483 1482 1479 1485 1486 1492 1486 1487 1489 1492 1494 1496 1498 1500 1501 1502 1502 1503 1503 1503 1502 1502 1501 1501 1500 1499 1498 1498 1497 1497 1496 1495 1495 1494 1494 1494 1493 1492
1479 1486 1480 1482 1482 1483 1481 1479 1483 1486 1497 1498 1489 1487 1487 1490 1492 1494 1496 1498 1499 1501 1501 1502 1502 1502 1502 1501 1501 1500 1499 1499 1498 1497 1496 1496 1495 1494 1493 1493 1492 1491 1491 1490
1479 1486 1483 1481 1483 1481 1483 1483 1483 1481 1484 1494 1497 1491 1483 1487 1489 1492 1494 1497 1498 1500 1500 1501 1501 1501 1501 1500 1500 1499 1499 1498 1497 1496 1496 1495 1494 1493 1492 1492 1491 1490 1489 1488
1481 1482 1484 1481 1479 1480 1479 1480 1482 1491 1490 1487 1490 1492 1485 1486 1489 1492 1494 1496 1498 1499 1500 1500 1501 1501 1500 1500 1499 1498 1498 1497 1496 1496 1495 1494 1493 1492 1491 1491 1490 1489 1488 1487
1482 1485 1491 1487 1486 1483 1480 1480 1480 1481 1484 1487 1491 1490 1486 1487 1489 1491 1493 1495 1497 1499 1499 1500 1500 1500 1499 1499 1498 1497 1497 1496 1495 1494 1493 1492 1491 1491 1490 1489 1488 1487 1486 1485
1484 1483 1486 1490 1484 1479 1481 1481 1480 1481 1484 1484 1484 1483 1484 1486 1488 1491 1493 1495 1496 1498 1498 1499 1499 1498 1498 1498 1497 1496 1496 1495 1494 1493 1492 1491 1490 1489 1488 1487 1486 1485 1485 1483
1483 1483 1481 1479 1478 1479 1480 1480 1479 1481 1480 1482 1481 1481 1481 1484 1487 1490 1492 1494 1495 1496 1497 1497 1497 1497 1497 1497 1496 1495 1495 1494 1493 1492 1491 1490 1489 1488 1487 1486 1485 1484 1484 1483
1483 1484 1481 1482 1478 1479 1480 1478 1478 1479 1478 1478 1479 1480 1480 1484 1486 1489 1491 1492 1493 1495 1495 1496 1496 1496 1496 1495 1495 1494 1494 1493 1492 1491 1490 1489 1488 1487 1486 1485 1484 1483 1483 1481
1481 1484 1484 1482 1476 1479 1481 1476 1476 1477 1476 1477 1478 1479 1480 1483 1485 1487 1489 1491 1492 1493 1494 1494 1495 1495 1494 1494 1494 1493 1493 1492 1491 1490 1489 1488 1487 1486 1485 1485 1484 1483 1482 1480
1483 1483 1480 1478 1482 1490 1478 1473 1474 1475 1475 1475 1477 1478 1480 1482 1484 1487 1488 1490 1491 1492 1493 1493 1493 1493 1493 1493 1492 1492 1492 1491 1490 1490 1489 1487 1486 1486 1485 1484 1483 1482 1481 1479
1482 1482 1479 1478 1479 1478 1475 1474 1475 1476 1476 1476 1477 1479 1480 1482 1484 1485 1488 1489 1490 1491 1492 1492 1492 1492 1492 1491 1491 1491 1491 1490 1490 1489 1488 1487 1486 1485 1484 1483 1482 1481 1479 1478
1481 1481 1480 1478 1482 1482 1476 1474 1476 1477 1477 1477 1478 1479 1481 1481 1480 1482 1486 1488 1489 1490 1490 1491 1491 1491 1490 1490 1490 1490 1489 1489 1488 1487 1486 1486 1485 1483 1482 1481 1480 1479 1478 1476
1479 1479 1479 1477 1478 1472 1474 1475 1477 1481 1479 1479 1479 1480 1481 1481 1482 1485 1485 1487 1488 1489 1489 1489 1489 1489 1489 1489 1488 1488 1488 1487 1486 1486 1485 1484 1483 1482 1481 1480 1479 1478 1476 1475
1475 1474 1476 1476 1478 1478 1476 1476 1478 1480 1480 1480 1480 1481 1482 1483 1484 1484 1485 1486 1487 1487 1488 1488 1488 1488 1488 1487 1487 1486 1486 1485 1484 1484 1483 1482 1481 1480 1479 1478 1477 1476 1475 1474
1472 1473 1471 1474 1477 1478 1478 1479 1481 1481 1480 1480 1480 1481 1482 1482 1483 1484 1484 1485 1486 1486 1486 1486 1486 1486 1486 1485 1485 1485 1484 1483 1482 1482 1481 1480 1479 1478 1477 1476 1476 1475 1473 1473
1473 1477 1474 1475 1474 1477 1479 1480 1481 1481 1481 1480 1480 1480 1481 1481 1482 1483 1483 1484 1484 1485 1485 1484 1485 1484 1484 1483 1483 1482 1482 1481 1481 1480 1479 1478 1477 1476 1475 1474 1474 1473 1472 1471
1473 1475 1474 1475 1475 1477 1478 1480 1480 1480 1480 1480 1480 1480 1480 1480 1481 1481 1482 1482 1483 1483 1483 1483 1483 1482 1482 1481 1481 1480 1480 1479 1479 1478 1477 1476 1475 1475 1473 1473 1472 1471 1470 1469
1474 1475 1475 1473 1476 1477 1478 1479 1480 1480 1479 1479 1479 1479 1479 1479 1479 1480 1480 1481 1481 1481 1481 1481 1481 1480 1480 1479 1479 1478 1478 1477 1476 1476 1475 1474 1473 1472 1472 1471 1470 1469 1468 1467